Flag for U.S.A. Weather past 2 weeks in Metairie, Louisiana, U.S.A.

Now
77 °F

Passing clouds.


Feels Like: 79 °F
Forecast: 78 / 87 °F
Wind: No wind

Location: New Orleans International Airport

Current Time: Jul 4, 2015 at 10:36:28 PM

Latest Report: Jul 4, 2015 at 9:53 PM


Visibility: 10 mi

Pressure: 30.06 "Hg

Humidity: 79%

Dew point: 70 °F

Location of MetairieLocation

Historic Weather in Metairie — Graph

°F

Metairie temperature yesterday

Maximum temperature yesterday: 93 °F (at 3:53 PM)
Minimum temperature yesterday: 79 °F (at 3:53 AM)
Average temperature yesterday: 85 °F

Past Weeks' High & Low Weather Summary

 TemperatureHumidityPressure
High93 °F (Jun 23, 12:53 PM)91% (Jun 25, 5:53 AM)30.18 "Hg (Jun 25, 5:53 AM)
Low73 °F (Jul 1, 5:53 AM)40% (Jun 21, 4:53 PM)29.95 "Hg (Jun 27, 6:53 PM)
Average82 °F73%30.07 "Hg
* Reported Jun 19 8:53 PM — Jul 4 8:53 PM, Metairie, Weather by CustomWeather, © 2015

Note: Actual official high and low records may vary slightly from our data, if they occured in-between our weather recording intervals... More about our weather records

Advertising

Metairie weather history for previous 24 hours

 ConditionsComfort  
Time TempWeatherWind HumidityBarometerVisibility
8:53 PM
Sat, Jul 4
77 °FPartly sunny.6 mph79%30.06 "Hg10 mi
7:53 PM79 °FPartly sunny.5 mph77%30.06 "Hg10 mi
6:53 PM83 °FPartly sunny.7 mph70%30.04 "Hg10 mi
5:53 PM82 °FPartly sunny.5 mph72%30.05 "Hg10 mi
4:53 PM84 °FPartly sunny.8 mph65%30.06 "Hg10 mi
3:53 PM84 °FPartly sunny.12 mph67%30.05 "Hg10 mi
2:53 PM88 °FBroken clouds.9 mph57%30.03 "Hg10 mi
1:53 PM89 °FPartly sunny.14 mph55%30.05 "Hg10 mi
12:53 PM92 °FBroken clouds.14 mph51%30.05 "Hg10 mi
11:53 AM92 °FBroken clouds.12 mph51%30.07 "Hg10 mi
10:53 AM89 °FBroken clouds.10 mph55%30.08 "Hg10 mi
9:53 AM87 °FBroken clouds.10 mph65%30.09 "Hg10 mi
8:53 AM84 °FPartly sunny.10 mph74%30.07 "Hg10 mi
7:53 AM82 °FPartly sunny.10 mph77%30.06 "Hg10 mi
6:53 AM80 °FPassing clouds.5 mph81%30.06 "Hg10 mi
5:53 AM79 °FPassing clouds.7 mph82%30.05 "Hg10 mi
4:53 AM79 °FPartly cloudy.7 mph82%30.03 "Hg10 mi
3:53 AM78 °FClear.5 mph84%30.03 "Hg10 mi
2:53 AM79 °FPassing clouds.6 mph82%30.02 "Hg10 mi
1:53 AM79 °FPassing clouds.5 mph82%30.04 "Hg10 mi
12:53 AM79 °FPassing clouds.7 mph82%30.04 "Hg10 mi
11:53 PM
Fri, Jul 3
80 °FPassing clouds.6 mph79%30.04 "Hg10 mi
10:53 PM81 °FPassing clouds.7 mph77%30.03 "Hg10 mi
Weather by CustomWeather, © 2015

See weather overviewHow to use our weather pages